Regional Weather Roundup
Issued by NWS Grand Forks, ND

Home | Current Version | Previous Version | Text Only | Print | Product List | Glossary Off
Versions: 1 2 3 4 5 6 7 8 9 10 11 12 13 14 15 16 17 18 19 20 21 22 23 24 25 26 27 28 29 30 31 32 33 34 35 36 37 38 39 40 41 42 43 44 45 46 47 48 49 50

000
ASUS43 KFGF 282031
RWRFGF
PRAIRIE TO PINES  WEATHER ROUNDUP
NATIONAL WEATHER SERVICE EASTERN NORTH DAKOTA/GRAND FORKS ND
300 PM CDT THU APR 28 2016

 **SATELLITE DATA USED TO AUGMENT SKY COVER AT AUTOMATED STATIONS**
 *****  WEATHER ACROSS EASTERN NORTH DAKOTA  *****

CITY           SKY/WX    TMP DP  RH WIND       PRES   REMARKS
GRAND FORKS    CLOUDY    57  24  28 NE20      30.11S
GRAND FRKS AFB CLOUDY    55  21  26 NE15G23   30.12S
DEVILS LAKE    MOSUNNY   54  18  24 E15G23    30.14R
FARGO          CLOUDY    58  19  22 NE17      30.05F
WAHPETON ARPT  MOCLDY    52  27  37 E8        30.06S
$$

 ***** WEATHER ACROSS CENTRAL AND WESTERN NORTH DAKOTA  *****

CITY           SKY/WX    TMP DP  RH WIND       PRES   REMARKS
BISMARCK       CLOUDY    56  22  26 NE15      30.09S
MINOT          CLOUDY    59  11  15 NE15      30.13S
JAMESTOWN      PTSUNNY   56  24  29 E20G28    30.06S
MINOT AFB      CLOUDY    55  16  21 NE16      30.13R
GARRISON         N/A     56  22  26 E12G20    30.11F
WILLISTON      PTSUNNY   57  23  26 NE13      30.13F
DICKINSON      CLOUDY    48  30  49 MISG      30.08S
HETTINGER      CLOUDY    44  35  70 NE7       30.10F
$$

 *****  OTHER AIRPORT OBSERVATIONS IN OUR AREA  *****

CITY           SKY/WX    TMP DP  RH WIND       PRES   REMARKS
WALHALLA       FAIR      55  21  26 NE13G25   30.16S
GRAFTON AIRPOR FAIR      54  19  26 E17       30.16S
VALLEY CITY AR MOCLDY    55  23  28 NE18G28   30.09R
CANDO          FAIR      55  14  19 E17       30.17R
CAVALIER APRT  FAIR      55  25  30 NE15      30.15S
GWINNER        MOCLDY    55  30  38 NE12      30.05S
SHEYENNE NWR     N/A     56  22  26 NE10      29.95
ROLLA          FAIR      55  14  19 E16G23    30.16S
 ***** THE ABOVE OBSERVATIONS ARE NON NWS ARE NOT QUALITY
       CONTROLLED AND MAY MIS-REPORT RAIN FOR SNOW...
$$

  *****  WEATHER ACROSS NORTHERN MINNESOTA  *****

CITY           SKY/WX    TMP DP  RH WIND       PRES   REMARKS
FLAG ISLAND    SUNNY     48  18  29 N16       30.15F
WARROAD        SUNNY     46  27  46 E9        30.17S
ROSEAU         MOSUNNY   54  28  37 E17       30.15S
HALLOCK        MOSUNNY   57  12  17 E12G21    30.14S
THF RVR FALLS  CLOUDY    54  21  28 E15G21    30.12S
BAUDETTE       MOSUNNY   55  22  27 E14       30.13S
WASKISH        PTSUNNY   55  28  35 NE13G22   30.11S
CROOKSTON      MOSUNNY   55  23  28 E14       30.11S
STEPHEN NDAWN    N/A     55  23  28 NE15        N/A
GREENBUSH NDAW   N/A     54  25  32 E9          N/A
$$
  *****  WEATHER ACROSS CENTRAL AND WEST MINNESOTA  *****

CITY           SKY/WX    TMP DP  RH WIND       PRES   REMARKS
FOSSTON        SUNNY     55  25  30 NE12G18   30.09F
BEMIDJI        MOSUNNY   55  23  29 NE7       30.07S
PARK RAPIDS    PTSUNNY   55  19  24 NE14      30.05S
ELBOW LAKE     CLOUDY    48  28  45 NE7       30.05S
WADENA         PTSUNNY   54  27  35 NE5       30.03F
DETROIT LAKES  PTSUNNY   54  23  30 NE12G18   30.06S
MOORHEAD       CLOUDY    57  19  23 E13       30.06S
FERGUS FALLS   CLOUDY    52  25  35 E8        30.04R
MORRIS MN      LGT RAIN  39  37  93 CALM      30.06R
STAPLES        PTSUNNY   55  21  26 E10       30.03F
$$
  *****  WEATHER ELSEWHERE ACROSS MINNESOTA  *****

CITY           SKY/WX    TMP DP  RH WIND       PRES   REMARKS
DULUTH         MOSUNNY   46  22  38 E15G25    30.10R
INTRNTL FALLS  MOSUNNY   52  25  35 NE10G22   30.13S
ELY            MOSUNNY   52  23  32 N9G16     30.09F
CLOQUET        CLOUDY    46  16  29 NE22      30.08S
WHEATON        CLOUDY    48  30  49 E5        30.08R
BRAINERD       CLOUDY    56  22  26 NE14      30.03S
HIBBING        SUNNY     52  22  30 NE12G18   30.07S
ALEXANDRIA     CLOUDY    48  29  47 E8        30.05R
SAINT CLOUD    CLOUDY    45  35  68 NE7       30.05R
MINNEAPOLIS    LGT RAIN  42  36  79 NE21G29   30.02R
$$

  *****  WEATHER ACROSS SOUTH DAKOTA  *****

CITY           SKY/WX    TMP DP  RH WIND       PRES   REMARKS
SIOUX FALLS    CLOUDY    43  37  79 N10       29.99R
BROOKINGS      CLOUDY    38  33  82 NE10      30.01R
WATERTOWN      LGT SNOW  35  32  88 NE9       30.04S VSB 1
HURON          CLOUDY    43  37  79 MISG      30.04R
SISSETON         N/A     47  32  56 SE10      30.05S
ABERDEEN       CLOUDY    49  31  49 NE8       30.06R
MITCHELL       CLOUDY    43  38  82 N10       30.03R
PIERRE         CLOUDY    44  36  73 N13       30.05R
MOBRIDGE       CLOUDY    52  36  54 NE9       30.04R
RAPID CITY     CLOUDY    40  33  76 N13       30.05S
$$

  *****  SOME WEATHER IN NEARBY STATES *****

CITY           SKY/WX    TMP DP  RH WIND       PRES   REMARKS
GLASGOW MT     PTSUNNY   54  28  36 E16       30.12F
GREAT FALLS MT CLOUDY    40  35  83 NE14      30.09S
CHEYENNE WY    CLOUDY    35  31  85 E7        29.96S
SCOTTSBLUFF NE CLOUDY    45  29  53 N5        30.00F
OMAHA NE       CLOUDY    51  43  74 NW12      29.97R
DES MOINES IA  CLOUDY    56  46  69 W8        29.89R
DAVENPORT IA   LGT RAIN  51  48  89 SE5       29.90R FOG
CHICAGO IL     CLOUDY    50  42  74 NE9       29.90R
EAU CLAIRE WI  LGT RAIN  42  37  82 E10       30.02R
LA CROSSE WI   CLOUDY    43  36  76 E12       29.98R
$$

  *****  SOME NATIONAL WEATHER *****

CITY           SKY/WX    TMP DP  RH WIND       PRES   REMARKS
LA GUARDIA NY  CLOUDY    54  33  45 S13G20    30.03F
RALEIGH NC     CLOUDY    83  66  56 SW12G17   29.84F
ATLANTA GA     MOSUNNY   84  60  44 W10       29.94F
NEW ORLEANS LA CLOUDY    76  71  85 SE12      29.92F THUNDER
OKLAHOMA CITY  PTSUNNY   72  48  42 SE8       29.93F
ALBUQUERQUE NM MOSUNNY   71  13  10 S20G26    29.75S
SALT LAKE CITY CLOUDY    54  35  48 VRB5      29.73S
LOS ANGELES CA MOSUNNY   64  45  49 W15       29.87S
BOISE ID       SUNNY     67  34  29 NW17      29.80F
SEATTLE WA     PTSUNNY   58  43  57 SW7       30.11S
$$

*** WEATHER ACROSS MANITOBA...SASKATCHEWAN AND ONTARIO ***
                ***ONTARIO***

CITY           SKY/WX    TMP DP  RH WIND       PRES   REMARKS
GERALDTON      MOSUNNY   48  28  46 NE9G18    30.15F
THUNDER BAY    PTSUNNY   46  27  46 SE12      30.15S
SIOUX LOOKOUT  PTSUNNY   48  25  40 N7        30.18F
TORONTO        CLOUDY    48  23  37 E13       30.03F
BIG TROUT LK   CLOUDY    37  27  65 N7        30.30S
PICKLE LAKE    CLOUDY    45  25  45 N5        30.21S
DRYDEN         SUNNY     48  23  37 NE14G20   30.16F
KENORA         CLOUDY    52  16  24 N10G24    30.16F
$$
                *** MANITOBA***

CITY           SKY/WX    TMP DP  RH WIND       PRES   REMARKS
BRANDON        CLOUDY    55  12  18 NE21G31   30.21S
DAUPHIN        SUNNY     55  16  21 NE13G21   30.27F
ISLAND LAKE    MOSUNNY   48   7  18 N8        30.34F
PILOT MOUND      N/A     55  12  18 NE17G25     N/A
THE PAS        MOSUNNY   55  19  24 SE8G18    30.33F
THOMPSON       PTSUNNY   54  18  24 E5        30.36F
WINNIPEG       PTSUNNY   55  16  21 NE18G29   30.20S
LYNN LAKE      CLOUDY    55  23  28 S12       30.25F
CHURCHILL      MOSUNNY   28  23  80 N7        30.49F WCI  21
GILLAM         SUNNY     45  12  26 NE7       30.40F
$$
                ***SASKATCHEWAN***

CITY           SKY/WX    TMP DP  RH WIND       PRES   REMARKS
ESTEVAN        CLOUDY    57  14  18 NE13G23   30.16F
KINDERSLEY     PTSUNNY   59  19  21 SE13G18   30.17F
LLOYDMINSTER   PTSUNNY   61  21  21 SE12G23   30.18F
PRINCE ALBERT  CLOUDY    61  25  25 SE10G18   30.25F
REGINA         PTSUNNY   59  18  20 E12G20    30.19F
YORKTON        SUNNY     59  19  21 E13G30    30.23F
N. BATTLEFORD  SUNNY     61  19  20 E13G20    30.22F
LA RONGE       MOSUNNY   64  23  20 SE5       30.24F
SASKATOON      PTSUNNY   61  19  20 SE15G25   30.23F
SWIFT CURRENT  NOT AVBL
$$
NOTE: THESE ARE AUTOMATED STATIONS WITH LIMITED QUALITY CONTROL
      "FAIR" INDICATES FEW OR NO CLOUDS BELOW 12,000 FEET WITH NO
      SIGNIFICANT WEATHER AND/OR OBSTRUCTIONS TO VISIBILITY.
      SKY/WX - SKY CONDITION AND SIGNIFICANT WEATHER.
      TMP - AIR TEMPERATURE.    DP   - DEWPOINT TEMPERATURE.
      RH  - RELATIVE HUMIDITY.  PRES - PRESSURE.
      HX  - HEAT INDEX.         WCI  - WIND CHILL INDEX.
$



USA.gov is the U.S. government's official web portal to all federal, state and local government web resources and services.